Location: Azul
(36.7830°S, 59.8500°W)
Time: 11:44:40

ISS - Pass Details

Date: 15 March 2018
Orbit: 403 x 406 km, 51.6° (Epoch: 17 March)

Event Time Altitude Azimuth Distance (km) Brightness Sun altitude
Rises 19:51:08 0° 239° (WSW) 2,352 1.5 -7.4°
Reaches altitude 10° 19:53:22 10° 249° (WSW) 1,485 0.6 -7.9°
Maximum altitude 19:56:21 30° 312° (NW) 761 -2.0 -8.5°
Drops below altitude 10° 19:59:18 10° 16° (NNE) 1,468 -1.2 -9.1°
Enters shadow 20:01:15 - 26° (NNE) 2,221 -0.4 -9.4°
